Tracking 23610 objects as of 19-Sep-2021
HD Live streaming from Space Station
objects crossing your sky now

CHINASAT 2D

Track CHINASAT 2D now!


NORAD ID: 43920
Int'l Code: 2019-001A
Perigee: 35,788.2 km
Apogee: 35,801.0 km
Inclination: 0.0 °
Period: 1,436.1 minutes
Semi major axis: 42165 km
RCS: Unknown
Launch date: January 10, 2019
Source: People's Republic of China (PRC)
Launch site: Xichang Space Center, China (XSC)
aabbcc
Your satellite tracking list
Your tracking list is empty




NASA's NSSDC Master Catalog

Two Line Element Set (TLE):
1 43920U 19001A   21261.60693701 -.00000362  00000-0  00000-0 0  9995
2 43920   0.0360 310.6717 0001520  64.4946 331.0518  1.00268848  9978
Source of the keplerian elements: AFSPC